[[{"header":{"parameterUnit":"m.s-1","parameterCategory":1,"la1":30.2991,"la2":30.254,"lo1":-89.0895,"lo2":-89.0444,"dy":0.0017,"dx":0.0017,"nx":28,"ny":28,"refTime":"2024-04-21T21:00:00:Z","depth":0,"parameterNumber":2,"parameterNumberName":"U-component_of_WINDS"},"data":[0,0,0,0,0,0,0,0,0,0,0,0,0,0,0,0,0,0,0,0,0,0,0,0,0,0,0,0,0,0,0,0,0,0,0,0,0,0,0,0,0,0,0,0,0,0,0,0,0,0,0,0,0,0,0,0,0,0,-2.9851,-2.9852,0,-2.9942,-2.9943,-2.9944,-2.9959,-2.9958,-2.9957,-2.9956,-3.0051,-3.0054,-3.0057,0,0,0,0,0,0,0,0,0,0,0,0,0,-2.9691,-2.9694,-2.9851,-2.9852,-2.9853,-2.9942,-2.9943,-2.9944,-2.9959,-2.9958,-2.9957,-2.9956,-3.005,-3.0054,-3.0058,0,0,0,0,0,0,0,0,0,0,0,0,0,-2.9769,-2.9695,-2.985,-2.9871,-2.9874,-2.9941,-2.9943,-2.9944,-2.9959,-2.9958,-2.9957,-2.9956,-3.0049,-3.0053,-3.0058,-3.0112,0,0,-3.0073,-3.0075,0,0,0,0,0,0,0,0,-2.9765,-2.9775,-2.9867,-2.987,-2.9873,-2.9938,-2.9921,-3.0001,-2.9959,-2.9927,-2.9956,-2.9955,-3.0014,-3.0022,-3.0042,-3.0117,-3.0121,-3.0074,-3.0077,-3.0079,-3.008,0,0,0,0,0,0,0,-2.9759,-2.9771,-2.9887,-2.9868,-2.9872,-2.9876,-2.9886,-2.9937,-2.9976,-2.9929,-2.9931,-2.9941,-3.0016,-3.0037,-3.0044,-3.0122,-3.0073,-3.0078,-3.0081,-3.0083,-3.0247,-3.0248,0,0,0,0,0,0,-2.975,-2.9767,-2.9884,-2.9889,-2.9815,-2.988,-2.9891,-2.9918,-2.9976,-2.9983,-2.9942,-2.9942,-3.0029,-3.0038,-3.0047,-3.0115,-3.0079,-3.0083,-3.0086,-3.0246,-3.0247,-3.0249,0,0,0,0,0,0,-2.9746,-2.976,-2.988,-2.9828,-2.9844,-2.9884,-2.9914,-2.992,-2.9942,-2.9985,-2.9993,-2.9956,-3.0029,-3.0041,-3.0096,-3.0118,-3.0085,-3.009,-3.0244,-3.0246,-3.0248,-3.0249,0,0,0,0,0,0,-2.9742,-2.9759,-2.9779,-2.9829,-2.9847,-2.9927,-2.9916,-2.9923,-2.995,-2.995,-3.0,-3.0008,-3.0029,-3.0089,-3.0101,-3.0124,-3.0094,-3.0242,-3.0245,-3.0247,-3.0247,-3.0251,-3.0254,0,0,0,0,0,-2.9736,-2.9776,-2.978,-2.9794,-2.9873,-2.9928,-2.9938,-2.9961,-2.9952,-2.9973,-3.0001,-3.0006,-3.0114,-3.0094,-3.0108,-3.0133,-3.0241,-3.0244,-3.0247,-3.0246,-3.025,-3.0254,0,0,0,0,0,0,-2.9728,-2.9783,-2.9788,-2.9845,-2.9882,-2.993,-2.9957,-2.9965,-3.0005,-3.0004,-3.0031,-3.0042,-3.0096,-3.0121,-3.0098,-3.0189,-3.0177,-3.0183,-3.0171,-3.0175,-3.0179,-3.0171,-3.0098,0,0,0,0,0,-2.9733,-2.9773,-2.9819,-2.9865,-2.9883,-2.9917,-2.9942,-2.9956,-2.9995,-3.0011,-3.0043,-3.0081,-3.0124,-3.0151,-3.0193,-3.0251,-3.0263,-3.0276,-3.0279,-3.0282,-3.0286,-3.0319,-3.0325,-3.0259,-3.0259,-3.0259,0,0,-2.9744,-2.9778,-2.9802,-2.9864,-2.9894,-2.9935,-2.993,-2.9973,-3.0004,-3.0018,-3.0072,-3.0097,-3.0142,-3.0199,-3.0226,-3.0221,-3.0307,-3.0286,-3.0287,-3.0291,-3.0323,-3.0329,-3.0335,-3.0262,-3.0261,-3.0261,0,0,-2.9783,-2.9814,-2.9855,-2.9886,-2.9931,-2.9954,-2.9964,-3.0012,-3.0029,-3.0084,-3.0095,-3.0133,-3.0205,-3.0237,-3.0262,-3.0315,-3.0322,-3.0328,-3.0346,-3.0378,-3.0383,-3.0388,-3.0406,-3.0413,-3.0333,-3.0333,-3.0333,0,-2.9791,-2.9852,-2.9876,-2.9919,-2.9946,-2.9961,-3.0003,-3.0032,-3.0089,-3.0108,-3.0101,-3.0193,-3.0224,-3.0289,-3.0302,-3.0323,-3.0335,-3.0322,-3.038,-3.0385,-3.039,-3.0408,-3.0415,-3.0333,-3.0333,-3.0333,-3.0333,0,-2.9858,-2.9901,-2.9929,-2.9983,-3.0014,-3.0057,-3.0088,-3.0116,-3.0129,-3.0152,-3.0208,-3.0247,-3.0296,-3.0313,-3.0326,-3.038,-3.0375,-3.0375,-3.0362,-3.0396,-3.0414,-3.0421,-3.0334,-3.0334,-3.0334,-3.0334,0,0,-2.9894,-2.9962,-2.9972,-2.9997,-3.0049,-3.0082,-3.0126,-3.0175,-3.0198,-3.0238,-3.0275,-3.0337,-3.0337,-3.0366,-3.0382,-3.041,-3.045,-3.0406,-3.0408,-3.0412,-3.0512,-3.0512,-3.0519,-3.0455,-3.0456,-3.0458,-3.0508,0,-2.994,-3.0017,-3.004,-3.0106,-3.0146,-3.0161,-3.0199,-3.0236,-3.0259,-3.0297,-3.0324,-3.0367,-3.0363,-3.0381,-3.041,-3.0439,-3.047,-3.0436,-3.049,-3.0492,-3.0477,-3.0528,-3.0528,-3.0574,-3.0515,-3.0516,-3.0517,0,-3.0002,-3.0042,-3.0111,-3.0159,-3.0176,-3.021,-3.0257,-3.0293,-3.0335,-3.035,-3.0383,-3.0397,-3.0445,-3.0431,-3.0496,-3.0473,-3.0497,-3.0515,-3.0517,-3.0522,-3.0505,-3.0534,-3.0589,-3.0596,-3.0528,-3.0527,-3.0527,0,-3.0021,-3.0092,-3.0143,-3.0164,-3.022,-3.0244,-3.0269,-3.031,-3.0337,-3.0379,-3.0397,-3.0443,-3.0468,-3.0504,-3.0531,-3.0519,-3.0595,-3.0583,-3.0609,-3.0608,-3.0623,-3.0621,-3.0681,-3.064,-3.064,-3.064,-3.064,0,-3.0068,-3.011,-3.0152,-3.0183,-3.023,-3.0257,-3.0304,-3.033,-3.0366,-3.0403,-3.042,-3.0454,-3.0488,-3.0527,-3.0549,-3.06,-3.0611,-3.0625,-3.063,-3.0623,-3.0621,-3.0638,-3.0636,-3.0642,-3.0641,-3.0641,-3.064,0,-3.0096,-3.0126,-3.0182,-3.0231,-3.0245,-3.0277,-3.032,-3.0351,-3.0376,-3.0423,-3.0435,-3.0474,-3.0521,-3.0552,-3.0612,-3.0627,-3.0682,-3.0687,-3.0668,-3.067,-3.0694,-3.0691,-3.0766,-3.0777,-3.0729,-3.0729,-3.073,0,-3.0124,-3.0156,-3.0209,-3.0235,-3.0259,-3.0301,-3.0329,-3.0358,-3.0387,-3.0438,-3.0463,-3.0511,-3.0551,-3.0626,-3.066,-3.0706,-3.0712,-3.0735,-3.0719,-3.0711,-3.0711,-3.0709,-3.0712,-3.0737,-3.0738,-3.0738,-3.0738,0,-3.017,-3.0183,-3.0223,-3.0269,-3.0302,-3.0339,-3.0377,-3.0397,-3.0432,-3.0464,-3.0512,-3.0543,-3.0605,-3.0653,-3.0702,-3.0729,-3.074,-3.0743,-3.0751,-3.0744,-3.0731,-3.0738,-3.0674,-3.0741,-3.0741,-3.0741,-3.074,-3.074,-3.0199,-3.0228,-3.027,-3.0314,-3.0345,-3.038,-3.0411,-3.044,-3.0481,-3.0532,-3.0548,-3.0598,-3.064,-3.0708,-3.0735,-3.0776,-3.0773,-3.0785,-3.0788,-3.079,-3.079,-3.0726,-3.0785,-3.0785,-3.0785,-3.0785,-3.0785,0,-3.0245,-3.0273,-3.0313,-3.0365,-3.04,-3.0407,-3.0449,-3.0478,-3.0521,-3.056,-3.0599,-3.0654,-3.0701,-3.0739,-3.0788,-3.0812,-3.0819,-3.0824,-3.0822,-3.0828,-3.079,-3.0778,-3.0818,-3.0818,-3.0818,-3.0818,-3.0818,-3.0818,-3.0273,-3.0323,-3.0342,-3.0408,-3.0436,-3.0484,-3.0508,-3.054,-3.0571,-3.0632,-3.0671,-3.0695,-3.0734,-3.0785,-3.0829,-3.0839,-3.0856,-3.086,-3.0871,-3.0834,-3.0831,-3.0827,-3.0816,-3.0864,-3.0864,-3.0906,-3.0906,-3.0906]},{"header":{"parameterUnit":"m.s-1","parameterCategory":1,"la1":30.2991,"la2":30.254,"lo1":-89.0895,"lo2":-89.0444,"dy":0.0017,"dx":0.0017,"nx":28,"ny":28,"refTime":"2024-04-21T21:00:00:Z","depth":0,"parameterNumber":3,"parameterNumberName":"V-component_of_WINDS"},"data":[0,0,0,0,0,0,0,0,0,0,0,0,0,0,0,0,0,0,0,0,0,0,0,0,0,0,0,0,0,0,0,0,0,0,0,0,0,0,0,0,0,0,0,0,0,0,0,0,0,0,0,0,0,0,0,0,0,0,3.9932,3.9932,0,3.9975,3.9975,3.9976,3.9989,3.9989,3.9988,3.9988,4.0029,4.003,4.0031,0,0,0,0,0,0,0,0,0,0,0,0,0,3.9859,3.9861,3.9932,3.9932,3.9933,3.9975,3.9975,3.9976,3.9989,3.9989,3.9988,3.9988,4.0028,4.003,4.0031,0,0,0,0,0,0,0,0,0,0,0,0,0,3.9895,3.9861,3.9932,3.9945,3.9946,3.9974,3.9975,3.9976,3.9989,3.9989,3.9988,3.9988,4.0028,4.003,4.0032,4.0049,0,0,4.0037,4.0038,0,0,0,0,0,0,0,0,3.9893,3.9898,3.9942,3.9944,3.9946,3.9976,3.9964,4.0,3.9989,3.9973,3.9988,3.9988,4.0011,4.0015,4.0023,4.0051,4.0053,4.0037,4.0039,4.0039,4.004,0,0,0,0,0,0,0,3.9891,3.9896,3.9949,3.9943,3.9945,3.9948,3.9952,3.9971,3.9993,3.9974,3.9975,3.998,4.0012,4.0021,4.0024,4.0053,4.0037,4.0039,4.004,4.0041,4.0098,4.0099,0,0,0,0,0,0,3.9886,3.9894,3.9947,3.995,3.9918,3.9949,3.9954,3.9967,3.9993,3.9997,3.998,3.9981,4.0018,4.0022,4.0026,4.0048,4.0039,4.0041,4.0042,4.0098,4.0099,4.0099,0,0,0,0,0,0,3.9885,3.9891,3.9946,3.9922,3.993,3.9951,3.9964,3.9968,3.9977,3.9998,4.0001,3.9986,4.0018,4.0023,4.0044,4.005,4.0042,4.0044,4.0098,4.0098,4.0099,4.0093,0,0,0,0,0,0,3.9883,3.989,3.9898,3.9922,3.9931,3.9964,3.9965,3.9969,3.998,3.9981,4.0004,4.0007,4.0018,4.0041,4.0045,4.0052,4.0045,4.0097,4.0098,4.0099,4.0093,4.0094,4.0094,0,0,0,0,0,3.988,3.9894,3.9898,3.9904,3.994,3.9964,3.9968,3.9982,3.9981,3.9988,4.0002,4.0006,4.0049,4.0043,4.0048,4.0056,4.0097,4.0098,4.0099,4.0093,4.0094,4.0094,0,0,0,0,0,0,3.9868,3.9897,3.9902,3.9924,3.9942,3.9966,3.9976,3.9982,3.9999,3.9999,4.0014,4.0019,4.0038,4.0049,4.0042,4.0074,4.0073,4.0075,4.0067,4.0068,4.0068,4.0065,4.0047,0,0,0,0,0,3.9868,3.9885,3.991,3.9927,3.9935,3.9954,3.9965,3.9974,3.9992,3.9999,4.0014,4.003,4.0047,4.0058,4.0075,4.0095,4.01,4.0103,4.0104,4.0104,4.0105,4.0117,4.0119,4.0102,4.0102,4.0102,0,0,3.9867,3.9886,3.9896,3.9925,3.9939,3.9956,3.996,3.9978,3.999,4.0001,4.0022,4.0034,4.0053,4.0074,4.0083,4.0083,4.0111,4.0105,4.0105,4.0106,4.0118,4.012,4.0121,4.0102,4.0102,4.0102,0,0,3.9876,3.9892,3.9908,3.9923,3.9945,3.9958,3.9962,3.9986,3.9994,4.0016,4.0025,4.0039,4.0068,4.0082,4.0093,4.0108,4.0113,4.0113,4.0116,4.0127,4.0129,4.013,4.0136,4.0137,4.0115,4.0115,4.0115,0,3.9872,3.99,3.9915,3.9933,3.9946,3.9958,3.9974,3.9988,4.0014,4.0022,4.0022,4.0059,4.0073,4.0097,4.0101,4.0109,4.0114,4.011,4.0128,4.0129,4.013,4.0136,4.0138,4.0114,4.0114,4.0114,4.0114,0,3.9894,3.9913,3.9924,3.995,3.9964,3.9981,3.9999,4.0011,4.0019,4.0031,4.0053,4.0071,4.0091,4.0098,4.0105,4.0124,4.0123,4.0125,4.0123,4.0132,4.0137,4.0139,4.0114,4.0114,4.0114,4.0114,0,0,3.9895,3.9932,3.9935,3.9948,3.9974,3.9989,4.0006,4.0028,4.0038,4.0056,4.0071,4.0096,4.0098,4.011,4.012,4.013,4.0141,4.0131,4.0131,4.0132,4.0162,4.016,4.0163,4.0145,4.0145,4.0146,4.0161,0,3.9907,3.994,3.9955,3.9981,3.9999,4.0011,4.0027,4.0044,4.0056,4.0073,4.0086,4.0103,4.0105,4.0113,4.0124,4.0137,4.0147,4.0137,4.0158,4.0159,4.0153,4.0165,4.0163,4.0177,4.0163,4.0163,4.0164,0,3.9925,3.9945,3.9973,3.9998,4.0006,4.002,4.0041,4.0057,4.0077,4.0085,4.01,4.0109,4.0127,4.0125,4.0151,4.0143,4.0153,4.0161,4.0162,4.0164,4.0161,4.0168,4.0181,4.0183,4.0167,4.0167,4.0166,0,3.9923,3.9956,3.9978,3.9988,4.0018,4.0028,4.004,4.006,4.0073,4.0091,4.0099,4.0119,4.013,4.0145,4.0159,4.0157,4.0184,4.0183,4.0191,4.019,4.0195,4.0195,4.021,4.0202,4.0202,4.0202,4.0202,0,3.9935,3.9951,3.9978,3.9991,4.001,4.0027,4.0045,4.0059,4.0077,4.0092,4.0104,4.0118,4.0136,4.0152,4.0163,4.0183,4.0187,4.0194,4.0197,4.0193,4.0192,4.0199,4.0199,4.0202,4.0202,4.0202,4.0202,0,3.9935,3.9954,3.9978,4.0005,4.0012,4.0025,4.0048,4.0061,4.0074,4.0093,4.0099,4.012,4.0139,4.0156,4.0181,4.0188,4.0209,4.0212,4.0202,4.0204,4.0211,4.021,4.0231,4.0235,4.0224,4.0224,4.0224,0,3.9942,3.9955,3.9984,3.9996,4.0009,4.0028,4.0041,4.0058,4.0071,4.0096,4.0106,4.0127,4.0145,4.0176,4.0192,4.0212,4.0215,4.0222,4.0218,4.0214,4.0215,4.0214,4.0216,4.0222,4.0222,4.0222,4.0222,0,3.9951,3.9959,3.9979,4.0001,4.0017,4.0035,4.0054,4.0063,4.0083,4.0097,4.0119,4.0133,4.016,4.018,4.0202,4.0214,4.0221,4.0223,4.0226,4.0222,4.0216,4.0219,4.0203,4.0222,4.0222,4.0222,4.0222,4.0222,3.9954,3.9967,3.999,4.0011,4.0027,4.0044,4.0058,4.0074,4.0092,4.0117,4.0126,4.0147,4.0167,4.0198,4.021,4.0227,4.0227,4.0231,4.0232,4.0233,4.0233,4.0214,4.0231,4.0231,4.0231,4.0231,4.0231,0,3.9964,3.998,3.9999,4.0025,4.0042,4.0049,4.007,4.0083,4.0103,4.0121,4.0139,4.0164,4.0184,4.0203,4.0224,4.0233,4.0237,4.0238,4.0238,4.024,4.0231,4.0226,4.0235,4.0235,4.0235,4.0235,4.0235,4.0235,3.9971,3.9993,4.0005,4.0035,4.005,4.0073,4.0084,4.01,4.0115,4.0143,4.016,4.0173,4.0192,4.0214,4.0233,4.0238,4.0245,4.0245,4.0251,4.0242,4.0241,4.024,4.0236,4.0247,4.0247,4.0259,4.0259,4.0259]}]]